Wind_Speed
26 25 25 25 26 27 28 29 30 31 32 33 33 34 35 35 36 37 38 39 41 41 41 41 41 40 38 37 37 36 33 33 34 35 37 38 38 39 40 42 44 45
27 27 26 26 27 28 29 30 31 32 33 34 35 35 36 37 38 38 38 40 42 42 42 42 43 43 41 38 37 35 34 35 37 38 39 40 41 41 42 45 47 47
29 28 28 28 29 30 31 31 32 33 34 35 36 37 37 38 39 39 40 42 43 43 44 44 44 44 41 39 38 37 37 39 40 40 41 43 44 45 46 48 49 49
30 30 30 31 31 31 32 33 34 35 36 37 38 39 40 40 40 41 42 44 45 45 45 45 46 46 43 41 42 41 41 42 42 42 42 44 46 49 50 51 51 52
32 32 33 33 33 33 34 34 36 37 37 38 39 40 42 42 42 43 44 45 46 47 46 47 48 47 45 44 44 42 42 43 43 44 44 46 49 51 53 54 54 54
34 34 35 35 35 35 35 36 37 38 39 40 41 42 43 44 44 46 46 47 48 48 48 48 48 48 48 46 44 43 43 45 46 47 48 49 51 53 55 56 57 57
36 36 37 37 37 37 38 39 39 39 40 41 43 44 45 46 46 47 49 48 49 49 49 49 49 49 49 47 46 45 45 46 48 49 50 52 53 55 56 58 59 58
38 38 39 39 40 39 40 41 41 41 42 43 44 45 47 48 48 49 50 50 51 51 50 50 50 50 50 49 48 47 47 48 50 51 53 54 55 57 59 60 60 59
40 41 42 42 42 42 43 43 43 43 44 45 46 47 49 50 50 50 51 52 53 53 52 52 51 51 51 51 50 49 49 50 51 53 54 56 58 59 61 61 60 58
43 43 44 45 45 45 45 45 45 45 46 47 48 50 51 52 52 52 53 53 54 54 54 53 53 52 52 52 51 51 51 51 52 54 56 57 59 61 62 61 58 56
45 45 46 47 47 47 47 47 47 47 47 48 49 51 53 54 54 54 54 54 54 55 56 55 54 53 53 52 52 51 52 52 53 55 56 58 60 61 61 59 57 56
47 48 49 49 50 49 49 49 49 49 50 50 50 52 54 57 57 56 55 55 56 56 57 57 55 54 54 53 52 52 52 53 54 55 56 58 59 60 60 59 58 57
49 50 51 52 51 51 50 51 51 52 52 53 53 53 54 57 59 59 58 58 58 58 59 59 57 56 55 54 52 52 53 54 56 57 58 59 60 60 60 60 60 60
51 52 53 53 53 52 52 53 53 53 54 55 56 55 55 57 59 61 61 61 61 60 60 61 60 58 57 56 54 54 55 56 57 59 60 61 61 61 62 62 62 62
54 55 55 55 54 53 54 55 55 55 55 57 58 58 57 57 59 61 62 63 63 63 62 62 62 61 59 58 56 55 56 57 59 61 62 62 63 64 64 64 65 65
56 57 57 56 56 55 56 57 58 57 57 58 59 61 60 60 60 61 63 64 65 64 63 63 64 63 61 59 57 57 58 59 60 62 64 65 65 66 67 67 67 67
58 59 58 58 57 56 57 59 60 60 60 60 60 61 62 62 62 62 64 65 66 65 64 64 64 64 63 61 59 59 60 60 62 63 65 66 67 68 69 70 70 70
60 60 60 60 58 58 59 61 62 62 63 63 62 62 63 63 63 64 64 65 66 66 66 65 64 65 64 62 61 61 62 62 63 65 66 68 69 70 71 72 72 72
62 62 62 61 60 60 60 62 63 64 65 66 65 64 64 64 64 65 65 65 66 67 66 65 64 65 64 64 63 63 63 64 65 67 68 70 71 72 73 73 72 73
63 64 64 63 62 62 63 63 65 66 67 68 67 67 66 66 65 66 66 66 66 66 66 65 64 65 65 65 65 65 66 66 67 69 70 71 72 74 74 74 74 74
64 65 65 65 65 65 65 66 67 69 70 70 70 70 69 69 68 67 67 66 66 66 66 65 64 65 67 67 67 68 68 68 69 70 71 72 74 75 76 76 76 76
65 67 67 67 67 67 67 68 69 71 72 73 73 72 72 72 70 69 68 67 67 66 66 66 66 66 67 68 69 69 70 70 70 70 71 73 75 76 77 77 76 76
67 68 69 70 70 70 70 71 71 73 75 75 75 75 75 75 74 72 70 69 67 66 65 67 67 66 67 69 70 71 71 70 70 71 72 74 75 77 78 77 74 74
68 69 70 71 72 72 73 73 74 76 77 77 78 78 78 78 77 75 73 70 67 66 67 68 68 68 69 70 71 73 73 72 73 73 73 73 75 77 77 74 71 73
70 70 71 72 73 74 75 76 77 78 79 79 79 79 79 79 78 76 73 71 69 68 69 70 70 70 71 72 73 74 74 75 74 74 74 74 75 75 73 69 67 71
72 72 73 73 74 76 77 78 79 80 80 81 80 80 79 78 77 75 73 72 71 71 72 73 73 73 73 74 74 75 75 75 74 75 76 75 74 71 65 62 64 68
Wind_Direction
313 317 320 323 324 323 323 322 322 322 322 322 323 324 326 326 325 325 327 329 329 329 328 328 327 324 320 317 316 316 315 316 318 318 317 318 319 319 320 320 319 319
312 315 318 320 320 319 319 320 320 320 320 320 321 322 323 323 323 324 325 327 328 327 327 327 326 325 321 318 316 316 314 315 317 317 316 316 318 319 320 319 319 317
310 313 315 316 316 316 317 317 317 317 317 318 319 320 321 321 323 324 324 325 326 326 326 326 326 326 323 321 320 319 317 316 317 316 316 316 317 319 320 319 317 316
309 311 313 313 312 313 314 315 315 315 315 317 318 319 319 320 322 322 323 324 325 325 325 325 325 325 323 321 320 319 318 317 316 316 316 315 316 318 319 318 317 315
308 309 310 310 310 310 311 312 312 312 314 316 317 318 318 319 321 321 321 322 323 324 324 324 324 323 322 320 319 318 317 316 316 317 317 316 316 317 317 317 316 315
306 307 307 307 308 308 309 309 310 311 314 315 316 317 318 318 320 320 319 320 321 323 323 324 322 321 321 320 318 317 316 316 317 317 318 317 318 318 317 317 317 315
304 304 305 305 306 306 306 306 308 311 313 314 315 316 316 317 319 318 317 318 320 322 323 322 321 319 319 318 317 317 316 316 317 317 318 318 319 318 318 317 317 315
302 302 303 303 304 305 304 304 307 310 312 313 314 315 315 316 317 316 316 317 318 320 321 321 320 319 318 318 317 317 316 316 317 317 318 318 319 318 318 317 316 315
300 301 301 302 302 302 302 303 306 309 310 312 313 314 314 314 315 314 314 315 317 318 320 320 319 319 319 318 317 316 316 316 316 317 317 318 318 318 318 318 317 315
298 299 299 300 300 300 301 303 306 307 309 310 312 312 313 312 312 313 313 314 315 317 318 319 319 319 318 318 317 316 315 315 315 316 317 317 318 319 318 318 316 315
296 296 297 298 298 299 300 303 305 306 307 308 310 311 311 311 311 311 311 312 314 316 317 318 318 318 318 318 317 316 315 314 314 315 316 317 318 318 318 317 316 315
294 295 295 296 297 298 301 303 304 305 306 307 308 309 310 310 310 309 310 311 313 315 316 317 318 317 317 318 317 315 314 314 314 314 315 316 317 317 317 316 315 315
292 293 294 295 296 298 300 302 303 304 305 305 306 307 308 309 308 309 310 311 313 315 316 317 317 317 317 317 316 315 314 313 313 313 314 315 316 317 317 316 315 315
290 291 292 293 295 298 299 300 301 302 304 305 305 306 306 306 307 308 310 312 314 315 316 316 316 316 316 316 316 314 314 313 313 314 315 316 316 317 317 317 316 315
289 290 291 292 294 296 298 298 299 301 302 303 304 305 305 305 305 307 310 312 313 315 316 316 316 315 315 316 315 314 313 313 314 315 316 316 317 317 318 318 317 316
287 288 289 291 293 295 296 297 298 299 300 302 302 303 304 304 306 308 310 311 312 314 315 315 315 314 314 314 314 313 312 313 314 315 316 317 317 318 319 319 318 317
286 287 289 290 292 293 295 296 297 298 299 300 301 301 303 304 306 308 309 310 311 313 314 315 314 313 312 312 312 312 313 314 315 316 316 317 318 319 319 320 319 318
285 286 287 289 290 292 294 295 296 298 298 299 299 300 302 304 305 307 308 309 311 312 313 313 312 311 310 310 311 312 313 315 316 316 317 318 319 320 321 321 320 320
284 285 286 288 290 291 292 293 295 296 297 298 298 300 301 303 304 306 308 309 311 312 312 312 311 310 309 310 312 313 314 315 316 317 318 319 320 321 321 322 321 320
283 284 286 288 289 291 292 293 294 295 296 297 298 300 301 303 305 306 307 309 310 310 310 310 309 309 310 311 312 314 315 317 318 319 319 320 321 321 322 321 320 319
282 284 286 288 289 291 292 293 294 295 296 297 299 300 302 303 305 306 307 308 309 309 308 308 309 310 311 312 313 314 316 318 319 320 320 320 321 321 321 321 319 318
282 285 287 288 290 291 292 293 294 295 296 298 299 301 302 303 304 305 306 307 308 308 308 308 310 311 312 312 314 315 317 319 319 319 320 320 321 321 321 321 320 320
283 285 287 289 290 292 293 294 295 296 297 298 300 301 303 303 304 305 306 308 309 308 308 309 311 312 312 313 314 315 317 318 318 318 319 319 320 321 321 321 322 321
283 286 287 289 290 292 293 294 295 296 297 299 301 302 303 304 304 306 307 309 309 309 309 310 311 311 312 313 314 315 316 317 317 318 318 319 320 321 322 323 323 321
284 286 287 288 290 291 293 294 295 297 298 299 301 302 303 303 304 306 308 309 309 309 309 310 311 312 313 313 314 315 315 316 317 317 317 318 319 321 324 324 319 314
285 286 287 289 290 292 293 294 295 297 298 300 301 301 302 303 303 305 307 307 308 309 310 311 312 312 313 313 313 314 314 315 315 314 315 316 318 320 320 314 307 306
Height
10972 10972 10971 10970 10969 10968 10967 10965 10964 10962 10961 10960 10958 10957 10956 10954 10952 10950 10948 10946 10944 10941 10938 10935 10933 10931 10929 10927 10925 10923 10921 10918 10917 10915 10912 10911 10909 10907 10904 10901 10899 10897
10969 10969 10969 10968 10967 10965 10964 10962 10961 10959 10958 10957 10955 10954 10953 10951 10949 10947 10945 10944 10941 10938 10936 10933 10930 10927 10925 10923 10921 10919 10917 10915 10913 10911 10908 10906 10904 10902 10900 10897 10894 10892
10967 10966 10966 10965 10964 10962 10961 10960 10958 10956 10955 10954 10952 10951 10950 10948 10946 10944 10942 10940 10937 10935 10932 10930 10927 10924 10921 10919 10917 10915 10913 10910 10908 10906 10904 10901 10898 10896 10894 10892 10889 10887
10964 10964 10963 10962 10961 10960 10958 10957 10955 10953 10952 10951 10950 10948 10946 10945 10943 10941 10938 10936 10933 10931 10929 10926 10923 10921 10918 10916 10913 10911 10908 10906 10904 10902 10899 10896 10893 10891 10889 10887 10884 10882
10961 10961 10960 10959 10958 10957 10955 10953 10951 10950 10949 10948 10946 10945 10942 10941 10939 10937 10935 10933 10930 10928 10925 10923 10920 10917 10915 10913 10910 10908 10904 10901 10899 10897 10895 10892 10888 10885 10883 10881 10879 10876
10958 10957 10956 10955 10954 10953 10952 10950 10948 10947 10946 10944 10942 10941 10939 10937 10936 10933 10931 10929 10927 10924 10921 10919 10916 10914 10912 10910 10907 10905 10902 10898 10895 10893 10891 10888 10885 10881 10878 10875 10873 10871
10955 10954 10953 10951 10950 10949 10948 10946 10945 10944 10943 10941 10939 10938 10935 10933 10932 10929 10927 10925 10923 10921 10918 10916 10913 10910 10908 10906 10904 10902 10899 10895 10891 10888 10886 10883 10881 10878 10874 10871 10869 10866
10951 10950 10949 10947 10946 10945 10944 10942 10941 10941 10939 10937 10935 10934 10931 10929 10928 10926 10922 10920 10918 10917 10915 10912 10909 10906 10903 10901 10899 10897 10894 10891 10887 10883 10880 10878 10875 10873 10870 10867 10864 10860
10947 10946 10944 10943 10942 10941 10939 10938 10937 10937 10935 10933 10931 10929 10927 10925 10924 10922 10919 10916 10914 10911 10910 10908 10905 10901 10898 10895 10893 10891 10889 10886 10882 10879 10876 10874 10871 10867 10864 10860 10857 10855
10943 10942 10940 10938 10937 10936 10935 10934 10933 10932 10931 10929 10927 10925 10923 10921 10919 10917 10915 10913 10910 10907 10905 10903 10900 10897 10894 10891 10888 10886 10884 10881 10878 10875 10872 10869 10866 10862 10858 10855 10852 10850
10939 10937 10935 10934 10932 10931 10931 10930 10929 10928 10926 10925 10924 10921 10918 10916 10915 10913 10911 10908 10906 10903 10900 10898 10896 10892 10890 10887 10884 10881 10879 10876 10874 10871 10867 10864 10861 10858 10854 10850 10847 10845
10934 10933 10930 10929 10927 10927 10927 10926 10924 10923 10922 10921 10920 10918 10914 10910 10908 10908 10906 10904 10902 10899 10895 10893 10891 10888 10885 10883 10880 10877 10874 10872 10869 10866 10863 10860 10857 10854 10850 10846 10843 10840
10929 10927 10925 10923 10923 10923 10923 10921 10919 10918 10916 10915 10915 10914 10911 10907 10902 10900 10900 10898 10896 10894 10890 10887 10885 10883 10880 10878 10876 10872 10869 10867 10864 10861 10858 10855 10852 10849 10846 10842 10838 10835
10924 10922 10920 10918 10918 10918 10918 10916 10915 10913 10912 10909 10908 10909 10908 10905 10899 10895 10893 10891 10889 10888 10885 10881 10879 10877 10875 10873 10871 10868 10864 10861 10858 10855 10852 10849 10845 10843 10840 10836 10832 10828
10918 10916 10914 10914 10913 10914 10913 10911 10909 10909 10907 10905 10902 10901 10902 10901 10897 10892 10888 10885 10883 10881 10879 10876 10872 10870 10869 10868 10866 10863 10859 10856 10852 10848 10845 10842 10838 10835 10832 10829 10825 10821
10912 10910 10909 10909 10909 10909 10908 10905 10903 10903 10903 10901 10898 10895 10894 10894 10892 10888 10884 10880 10878 10876 10874 10871 10866 10863 10862 10862 10860 10857 10854 10850 10846 10842 10838 10835 10832 10828 10824 10821 10817 10813
10906 10904 10903 10903 10904 10904 10902 10899 10897 10897 10896 10895 10894 10891 10888 10887 10886 10884 10880 10876 10873 10871 10869 10866 10861 10857 10856 10856 10855 10852 10848 10845 10840 10835 10831 10828 10825 10821 10817 10813 10809 10804
10899 10898 10898 10898 10899 10899 10897 10894 10892 10890 10889 10888 10887 10886 10884 10882 10880 10878 10876 10872 10869 10865 10864 10862 10857 10852 10850 10849 10848 10846 10842 10839 10834 10830 10825 10821 10817 10814 10810 10806 10800 10795
10893 10892 10892 10892 10893 10893 10892 10890 10887 10885 10883 10881 10880 10880 10879 10877 10875 10873 10870 10868 10864 10861 10858 10856 10852 10847 10843 10842 10840 10838 10836 10833 10828 10824 10819 10814 10810 10805 10801 10797 10792 10786
10887 10886 10886 10886 10886 10886 10885 10884 10882 10880 10877 10875 10874 10873 10872 10871 10870 10867 10865 10862 10860 10857 10853 10851 10847 10841 10837 10835 10833 10831 10829 10826 10821 10816 10812 10807 10802 10797 10793 10788 10783 10778
10881 10880 10879 10880 10879 10879 10878 10877 10875 10872 10870 10868 10867 10865 10864 10863 10863 10861 10859 10857 10855 10852 10847 10845 10842 10836 10830 10827 10825 10823 10821 10818 10813 10808 10804 10799 10795 10790 10786 10782 10776 10770
10875 10874 10873 10873 10872 10872 10871 10870 10868 10865 10862 10861 10859 10858 10856 10855 10855 10854 10852 10850 10848 10844 10840 10837 10834 10830 10824 10818 10816 10815 10813 10810 10806 10801 10797 10792 10788 10784 10779 10775 10770 10764
10869 10868 10867 10865 10864 10864 10863 10862 10861 10858 10855 10853 10852 10850 10848 10846 10846 10845 10844 10842 10840 10836 10832 10828 10826 10823 10818 10812 10809 10806 10805 10803 10800 10796 10791 10787 10782 10778 10773 10768 10763 10758
10864 10863 10861 10859 10858 10856 10855 10854 10852 10850 10848 10846 10844 10843 10840 10837 10836 10835 10834 10833 10831 10827 10823 10820 10817 10814 10810 10806 10802 10798 10796 10795 10792 10789 10785 10781 10777 10773 10768 10762 10757 10752
10858 10858 10856 10854 10852 10850 10848 10847 10844 10843 10841 10839 10837 10835 10833 10829 10827 10826 10824 10823 10821 10819 10815 10812 10809 10806 10803 10799 10796 10792 10788 10786 10783 10780 10778 10776 10773 10769 10763 10759 10757 10753
10852 10852 10850 10848 10847 10844 10842 10840 10837 10836 10834 10832 10830 10827 10824 10822 10820 10819 10817 10815 10813 10811 10807 10803 10800 10797 10795 10791 10788 10786 10782 10779 10776 10773 10770 10769 10768 10765 10763 10762 10760 10756